AOJ74J LOWS-LOWK

Flight info

Callsign AOJ74J
Flight time 0h 30m
Altitude 19000
Route VERDA DCT TISMA TISMA1T
Aircraft C750/M-SBDE3FGHRWXY/S

Departure

Time 2026-04-22 18:54
Airport Salzburg Airport (LOWS)

Arrival

Time 2026-04-22 19:24
Airport Klagenfurt Airport (LOWK)
Time Latitude Longitude Altitude Speed Heading
2026-04-22 18:40 47.79575 12.99883 1416 ft 0 kts 67°
2026-04-22 18:47 47.79570 12.99895 1417 ft 1 kts 137°
2026-04-22 18:47 47.79557 12.99917 1417 ft 4 kts 105°
2026-04-22 18:47 47.79554 12.99980 1417 ft 9 kts 127°
2026-04-22 18:47 47.79487 13.00029 1417 ft 12 kts 157°
2026-04-22 18:48 47.79404 13.00083 1417 ft 15 kts 156°
2026-04-22 18:48 47.79307 13.00143 1417 ft 15 kts 157°
2026-04-22 18:48 47.79216 13.00201 1416 ft 14 kts 155°
2026-04-22 18:48 47.79135 13.00260 1416 ft 12 kts 138°
2026-04-22 18:49 47.79122 13.00322 1416 ft 0 kts 97°
2026-04-22 18:52 47.79122 13.00331 1416 ft 4 kts 97°
2026-04-22 18:53 47.79118 13.00380 1416 ft 8 kts 97°
2026-04-22 18:53 47.79120 13.00483 1415 ft 10 kts 58°
2026-04-22 18:53 47.79165 13.00499 1416 ft 6 kts 340°
2026-04-22 18:53 47.79276 13.00428 1417 ft 53 kts 337°
2026-04-22 18:54 47.79966 12.99984 1441 ft 145 kts 336°
2026-04-22 18:54 47.80898 12.99379 1849 ft 152 kts 335°
2026-04-22 18:54 47.82003 12.98989 1942 ft 177 kts 359°
2026-04-22 18:54 47.83186 12.99458 2369 ft 177 kts 26°
2026-04-22 18:55 47.84195 13.00507 2926 ft 177 kts 36°
2026-04-22 18:55 47.85170 13.01542 3871 ft 170 kts 34°
2026-04-22 18:55 47.86141 13.02561 4672 ft 171 kts 34°
2026-04-22 18:55 47.87149 13.03623 5281 ft 188 kts 34°
2026-04-22 18:56 47.88294 13.04832 5737 ft 216 kts 34°
2026-04-22 18:56 47.89593 13.06208 6339 ft 241 kts 35°
2026-04-22 18:56 47.91005 13.07705 7042 ft 259 kts 34°
2026-04-22 18:56 47.92264 13.09623 8111 ft 264 kts 57°
2026-04-22 18:57 47.92866 13.12195 9344 ft 267 kts 80°
2026-04-22 18:57 47.92857 13.14995 10362 ft 274 kts 90°
2026-04-22 18:57 47.92674 13.17937 10681 ft 301 kts 99°
2026-04-22 18:57 47.91647 13.20864 10704 ft 341 kts 127°
2026-04-22 18:58 47.89655 13.22917 11344 ft 354 kts 154°
2026-04-22 18:58 47.87263 13.23892 12016 ft 363 kts 165°
2026-04-22 18:58 47.84680 13.24535 12049 ft 389 kts 169°
2026-04-22 18:58 47.81929 13.25160 12038 ft 411 kts 168°
2026-04-22 18:59 47.79097 13.25995 12093 ft 416 kts 166°
2026-04-22 18:59 47.76338 13.27178 12800 ft 403 kts 152°
2026-04-22 18:59 47.74058 13.29292 14316 ft 372 kts 140°
2026-04-22 18:59 47.72046 13.31657 15160 ft 371 kts 136°
2026-04-22 19:00 47.70040 13.34127 15752 ft 377 kts 137°
2026-04-22 19:00 47.67905 13.36434 16495 ft 382 kts 142°
2026-04-22 19:00 47.65671 13.38610 17211 ft 386 kts 143°
2026-04-22 19:00 47.63453 13.40890 17948 ft 389 kts 141°
2026-04-22 19:01 47.61263 13.43283 18661 ft 393 kts 140°
2026-04-22 19:01 47.59038 13.45687 19233 ft 400 kts 141°
2026-04-22 19:01 47.56736 13.48084 19300 ft 420 kts 142°
2026-04-22 19:01 47.54279 13.50611 19306 ft 440 kts 142°
2026-04-22 19:02 47.51734 13.53272 19305 ft 452 kts 142°
2026-04-22 19:02 47.49153 13.55996 19304 ft 457 kts 142°
2026-04-22 19:02 47.46550 13.58715 19306 ft 459 kts 142°
2026-04-22 19:02 47.43926 13.61428 19306 ft 461 kts 142°
2026-04-22 19:03 47.41303 13.64152 19304 ft 462 kts 142°
2026-04-22 19:03 47.38675 13.66896 19311 ft 463 kts 142°
2026-04-22 19:03 47.36041 13.69633 19301 ft 464 kts 142°
2026-04-22 19:03 47.33402 13.72360 19307 ft 463 kts 142°
2026-04-22 19:04 47.30776 13.75073 19299 ft 460 kts 142°
2026-04-22 19:04 47.28155 13.77790 19289 ft 461 kts 142°
2026-04-22 19:04 47.25532 13.80503 19302 ft 461 kts 142°
2026-04-22 19:04 47.22904 13.83210 19291 ft 460 kts 142°
2026-04-22 19:05 47.20276 13.85914 19091 ft 463 kts 142°
2026-04-22 19:05 47.17661 13.88603 18490 ft 457 kts 142°
2026-04-22 19:05 47.15069 13.91264 17864 ft 454 kts 142°
2026-04-22 19:05 47.12499 13.93904 17266 ft 449 kts 142°
2026-04-22 19:06 47.09948 13.96519 16666 ft 445 kts 142°
2026-04-22 19:06 47.07420 13.99105 16082 ft 441 kts 142°
2026-04-22 19:06 47.04912 14.01669 15486 ft 438 kts 142°
2026-04-22 19:07 46.99966 14.06721 14340 ft 429 kts 142°
2026-04-22 19:07 46.97516 14.09218 13714 ft 427 kts 142°
2026-04-22 19:07 46.95121 14.11654 13106 ft 423 kts 142°
2026-04-22 19:07 46.92711 14.14106 12419 ft 419 kts 142°
2026-04-22 19:08 46.90416 14.16427 12010 ft 381 kts 143°
2026-04-22 19:08 46.88286 14.18581 11993 ft 375 kts 142°
2026-04-22 19:08 46.86087 14.20833 12008 ft 397 kts 142°
2026-04-22 19:08 46.83884 14.23107 11688 ft 372 kts 142°
2026-04-22 19:09 46.81842 14.25201 11141 ft 346 kts 142°
2026-04-22 19:09 46.79924 14.27162 10590 ft 328 kts 142°
2026-04-22 19:09 46.78687 14.28437 10237 ft 317 kts 142°
2026-04-22 19:09 46.76376 14.30838 9471 ft 300 kts 141°
2026-04-22 19:10 46.74713 14.32583 9091 ft 286 kts 141°
2026-04-22 19:10 46.73112 14.34281 9100 ft 287 kts 140°
2026-04-22 19:10 46.71505 14.36011 9114 ft 288 kts 140°
2026-04-22 19:10 46.69902 14.37763 9117 ft 288 kts 140°
2026-04-22 19:11 46.68304 14.39533 8994 ft 288 kts 140°
2026-04-22 19:11 46.66609 14.41153 8859 ft 293 kts 144°
2026-04-22 19:11 46.64900 14.42754 8733 ft 291 kts 144°
2026-04-22 19:11 46.63201 14.44353 8604 ft 291 kts 144°
2026-04-22 19:12 46.61505 14.45953 8473 ft 290 kts 144°
2026-04-22 19:12 46.59815 14.47554 8350 ft 290 kts 144°
2026-04-22 19:12 46.58126 14.49145 8209 ft 288 kts 145°
2026-04-22 19:12 46.56217 14.49953 7931 ft 294 kts 178°
2026-04-22 19:13 46.54285 14.49105 7923 ft 294 kts 213°
2026-04-22 19:13 46.52893 14.46931 8010 ft 291 kts 238°
2026-04-22 19:13 46.52129 14.44292 8001 ft 286 kts 261°
2026-04-22 19:13 46.52086 14.41436 8002 ft 282 kts 283°
2026-04-22 19:14 46.52739 14.38919 7989 ft 254 kts 305°
2026-04-22 19:14 46.53880 14.37049 7992 ft 246 kts 325°
2026-04-22 19:14 46.55357 14.35900 7981 ft 241 kts 345°
2026-04-22 19:14 46.57023 14.35564 8011 ft 251 kts
2026-04-22 19:15 46.58182 14.35845 8007 ft 251 kts 16°
2026-04-22 19:15 46.60408 14.36906 8019 ft 256 kts 18°
2026-04-22 19:15 46.62110 14.37683 8018 ft 257 kts 17°
2026-04-22 19:15 46.63819 14.38442 8019 ft 256 kts 17°
2026-04-22 19:16 46.65544 14.39182 7822 ft 260 kts 16°
2026-04-22 19:16 46.67278 14.39891 7512 ft 257 kts 14°
2026-04-22 19:16 46.69039 14.39964 7046 ft 252 kts 352°
2026-04-22 19:16 46.70609 14.39076 6992 ft 233 kts 333°
2026-04-22 19:17 46.71779 14.37588 6989 ft 217 kts 314°
2026-04-22 19:17 46.72506 14.35753 6994 ft 206 kts 296°
2026-04-22 19:17 46.72922 14.33761 6874 ft 204 kts 292°
2026-04-22 19:17 46.73323 14.31798 6736 ft 201 kts 292°
2026-04-22 19:18 46.73720 14.29850 6512 ft 198 kts 292°
2026-04-22 19:18 46.74103 14.27932 6312 ft 195 kts 292°
2026-04-22 19:18 46.74472 14.26079 6307 ft 189 kts 292°
2026-04-22 19:18 46.74847 14.24213 6295 ft 193 kts 292°
2026-04-22 19:19 46.75213 14.22380 6293 ft 191 kts 292°
2026-04-22 19:19 46.75592 14.20495 6311 ft 196 kts 292°
2026-04-22 19:19 46.75935 14.18576 6288 ft 198 kts 285°
2026-04-22 19:19 46.75669 14.16578 6238 ft 207 kts 248°
2026-04-22 19:20 46.74659 14.14986 6004 ft 226 kts 211°
2026-04-22 19:20 46.73185 14.14259 5709 ft 221 kts 195°
2026-04-22 19:20 46.71699 14.13686 5386 ft 220 kts 196°
2026-04-22 19:20 46.70227 14.13225 4985 ft 213 kts 181°
2026-04-22 19:21 46.68871 14.13841 4613 ft 202 kts 144°
2026-04-22 19:21 46.67981 14.15334 4310 ft 194 kts 112°
2026-04-22 19:21 46.67576 14.17185 4042 ft 192 kts 102°
2026-04-22 19:21 46.67226 14.18938 3714 ft 170 kts 104°
2026-04-22 19:22 46.66888 14.20633 3431 ft 176 kts 104°
2026-04-22 19:22 46.66548 14.22340 3133 ft 176 kts 105°
2026-04-22 19:22 46.66212 14.24015 2857 ft 169 kts 107°
2026-04-22 19:22 46.65910 14.25516 2602 ft 143 kts 107°
2026-04-22 19:23 46.65645 14.26835 2401 ft 131 kts 105°
2026-04-22 19:23 46.65391 14.28094 2207 ft 129 kts 104°
2026-04-22 19:23 46.65141 14.29339 2011 ft 127 kts 104°
2026-04-22 19:23 46.64895 14.30554 1811 ft 125 kts 103°
2026-04-22 19:24 46.64646 14.31784 1607 ft 125 kts 102°
2026-04-22 19:24 46.64411 14.32978 1475 ft 115 kts 104°
2026-04-22 19:24 46.64222 14.33920 1474 ft 68 kts 107°
2026-04-22 19:24 46.64131 14.34368 1477 ft 29 kts 109°
2026-04-22 19:25 46.64112 14.34461 1477 ft 4 kts 26°
2026-04-22 19:25 46.64128 14.34411 1473 ft 10 kts 282°
2026-04-22 19:25 46.64145 14.34305 1477 ft 11 kts 283°
2026-04-22 19:25 46.64163 14.34196 1474 ft 13 kts 284°
2026-04-22 19:26 46.64194 14.34056 1474 ft 17 kts 286°
2026-04-22 19:26 46.64232 14.33868 1476 ft 20 kts 286°
2026-04-22 19:26 46.64270 14.33679 1465 ft 21 kts 287°
2026-04-22 19:26 46.64313 14.33469 1467 ft 22 kts 286°
2026-04-22 19:27 46.64355 14.33260 1468 ft 24 kts 287°
2026-04-22 19:27 46.64387 14.33099 1466 ft 25 kts 286°
2026-04-22 19:27 46.64447 14.32892 1469 ft 19 kts 322°
2026-04-22 19:27 46.64561 14.32810 1475 ft 17 kts 333°
2026-04-22 19:28 46.64657 14.32726 1475 ft 16 kts 321°
2026-04-22 19:28 46.64741 14.32642 1475 ft 13 kts 341°
2026-04-22 19:28 46.64813 14.32614 1473 ft 10 kts 346°
2026-04-22 19:28 46.64876 14.32588 1472 ft 9 kts 343°
2026-04-22 19:29 46.64924 14.32559 1473 ft 4 kts 287°
2026-04-22 19:29 46.64913 14.32553 1474 ft 0 kts 157°